| time (UTC) | temp C | wind direction | speed KPH | gust KPH | rain 1hr cm | rain 24hr cm | rain mn cm | humidity % | barometer mb |
| 20260504110549 | 3 | 155 | 0.0 | 0.0 | 0.00 | 0.00 | 0.00 | 85 | 1008.3 |
| 20260504100511 | 0 | 232 | 0.0 | 0.0 | 0.00 | 0.00 | 0.00 | 97 | 1008.2 |
| 20260504081904 | 1 | 174 | 0.0 | 1.6 | 0.00 | 0.00 | 0.00 | 94 | 1008.4 |
| 20260504081401 | 1 | 151 | 0.0 | 0.0 | 0.00 | 0.00 | 0.00 | 94 | 1008.3 |
| 20260504080856 | 1 | 151 | 0.0 | 0.0 | 0.00 | 0.00 | 0.00 | 94 | 1008.2 |
| 20260504080354 | 1 | 150 | 0.0 | 0.0 | 0.00 | 0.00 | 0.00 | 93 | 1008.5 |
| 20260504070321 | 1 | 169 | 0.0 | 0.0 | 0.00 | 0.00 | 0.00 | 92 | 1008.4 |
| 20260504060241 | 2 | 170 | 0.0 | 0.0 | 0.00 | 0.00 | 0.00 | 91 | 1008.2 |
| 20260504050709 | 4 | 170 | 0.0 | 1.6 | 0.00 | 0.00 | 0.00 | 85 | 1008.3 |
| 20260504050206 | 5 | 170 | 0.0 | 0.0 | 0.00 | 0.00 | 0.00 | 85 | 1008.4 |
| 20260504045703 | 5 | 170 | 0.0 | 0.0 | 0.00 | 0.00 | 0.00 | 84 | 1008.2 |
| 20260504045158 | 5 | 170 | 0.0 | 0.0 | 0.00 | 0.00 | 0.00 | 85 | 1008.4 |
| 20260504044656 | 6 | 170 | 0.0 | 0.0 | 0.00 | 0.00 | 0.00 | 85 | 1008.5 |
| 20260504044153 | 6 | 170 | 0.0 | 0.0 | 0.00 | 0.00 | 0.00 | 84 | 1008.5 |
| 20260504043650 | 7 | 170 | 0.0 | 0.0 | 0.00 | 0.00 | 0.00 | 83 | 1008.5 |
| 20260504043147 | 6 | 170 | 0.0 | 0.0 | 0.00 | 0.00 | 0.00 | 79 | 1008.6 |
| 20260504042644 | 6 | 170 | 0.0 | 0.0 | 0.00 | 0.00 | 0.00 | 83 | 1008.7 |
| 20260504042140 | 6 | 170 | 0.0 | 0.0 | 0.00 | 0.00 | 0.00 | 84 | 1008.6 |
| 20260504041636 | 6 | 170 | 0.0 | 0.0 | 0.00 | 0.00 | 0.00 | 86 | 1008.5 |
| 20260504041133 | 6 | 170 | 0.0 | 0.0 | 0.00 | 0.00 | 0.00 | 85 | 1008.5 |
| 20260504040630 | 6 | 169 | 0.0 | 0.0 | 0.00 | 0.00 | 0.00 | 83 | 1008.4 |
| 20260504040127 | 6 | 169 | 0.0 | 0.0 | 0.00 | 0.00 | 0.00 | 86 | 1008.3 |
| 20260504035623 | 6 | 169 | 0.0 | 0.0 | 0.00 | 0.00 | 0.00 | 85 | 1008.4 |
| 20260504035120 | 6 | 169 | 0.0 | 0.0 | 0.00 | 0.00 | 0.00 | 83 | 1008.3 |
| 20260504034618 | 6 | 169 | 0.0 | 0.0 | 0.00 | 0.00 | 0.00 | 82 | 1008.4 |
| 20260504034114 | 6 | 169 | 0.0 | 0.0 | 0.00 | 0.00 | 0.00 | 81 | 1008.4 |
| 20260504033613 | 6 | 169 | 0.0 | 0.0 | 0.00 | 0.00 | 0.00 | 80 | 1008.6 |
| 20260504033110 | 6 | 169 | 0.0 | 0.0 | 0.00 | 0.00 | 0.00 | 81 | 1008.6 |
| 20260504032606 | 6 | 169 | 0.0 | 0.0 | 0.00 | 0.00 | 0.00 | 80 | 1008.5 |
| 20260504032103 | 7 | 169 | 0.0 | 0.0 | 0.00 | 0.00 | 0.00 | 79 | 1008.5 |
| 20260504031601 | 7 | 170 | 0.0 | 0.0 | 0.00 | 0.00 | 0.00 | 80 | 1008.6 |
| 20260504031056 | 7 | 169 | 0.0 | 0.0 | 0.00 | 0.00 | 0.00 | 77 | 1008.5 |
| 20260504030554 | 7 | 265 | 0.0 | 0.0 | 0.00 | 0.00 | 0.00 | 76 | 1008.7 |
| 20260504030050 | 7 | 265 | 0.0 | 0.0 | 0.00 | 0.00 | 0.00 | 76 | 1008.5 |
| 20260504025547 | 7 | 147 | 0.0 | 0.0 | 0.00 | 0.00 | 0.00 | 78 | 1008.8 |
| 20260504025044 | 7 | 147 | 0.0 | 0.0 | 0.00 | 0.00 | 0.00 | 75 | 1009.0 |
| 20260504024541 | 7 | 147 | 0.0 | 0.0 | 0.00 | 0.00 | 0.00 | 74 | 1008.8 |
| 20260504024038 | 5 | 243 | 0.0 | 0.0 | 0.00 | 0.00 | 0.00 | 84 | 1008.9 |
| 20260504023534 | 5 | 170 | 1.6 | 1.6 | 0.00 | 0.00 | 0.00 | 85 | 1009.1 |
| 20260504023030 | 5 | 169 | 0.0 | 0.0 | 0.00 | 0.00 | 0.00 | 84 | 1008.9 |
| 20260504022526 | 4 | 170 | 0.0 | 0.0 | 0.00 | 0.00 | 0.00 | 88 | 1009.0 |
| 20260504022023 | 4 | 170 | 0.0 | 0.0 | 0.00 | 0.00 | 0.00 | 88 | 1009.0 |
| 20260504021521 | 4 | 170 | 0.0 | 0.0 | 0.00 | 0.00 | 0.00 | 88 | 1008.9 |
| 20260504021017 | 4 | 170 | 0.0 | 0.0 | 0.00 | 0.00 | 0.00 | 86 | 1009.0 |
| 20260504020514 | 4 | 170 | 0.0 | 0.0 | 0.00 | 0.00 | 0.00 | 86 | 1009.0 |
| 20260504020011 | 4 | 170 | 0.0 | 0.0 | 0.00 | 0.00 | 0.00 | 85 | 1009.0 |
| 20260504015507 | 5 | 170 | 0.0 | 0.0 | 0.00 | 0.00 | 0.00 | 85 | 1008.9 |
| 20260504015003 | 5 | 170 | 0.0 | 0.0 | 0.00 | 0.00 | 0.00 | 85 | 1008.8 |
| 20260504014459 | 5 | 170 | 0.0 | 0.0 | 0.00 | 0.00 | 0.00 | 85 | 1008.9 |
| 20260504013956 | 5 | 170 | 0.0 | 0.0 | 0.00 | 0.00 | 0.00 | 84 | 1008.8 |
| 20260504013455 | 5 | 170 | 0.0 | 0.0 | 0.00 | 0.00 | 0.00 | 82 | 1008.7 |
| 20260504012950 | 6 | 170 | 0.0 | 0.0 | 0.00 | 0.00 | 0.00 | 80 | 1008.9 |
| 20260504012449 | 6 | 170 | 0.0 | 0.0 | 0.00 | 0.00 | 0.00 | 80 | 1008.8 |
| 20260504011946 | 7 | 170 | 0.0 | 0.0 | 0.00 | 0.00 | 0.00 | 80 | 1008.7 |
| 20260504011442 | 7 | 170 | 0.0 | 0.0 | 0.00 | 0.00 | 0.00 | 79 | 1009.0 |
| 20260504010938 | 7 | 170 | 0.0 | 0.0 | 0.00 | 0.00 | 0.00 | 78 | 1008.6 |
| 20260504010434 | 7 | 170 | 0.0 | 1.6 | 0.00 | 0.00 | 0.00 | 77 | 1008.8 |
| 20260504005931 | 7 | 170 | 0.0 | 0.0 | 0.00 | 0.00 | 0.00 | 74 | 1008.6 |
| 20260504005427 | 7 | 170 | 1.6 | 1.6 | 0.00 | 0.00 | 0.00 | 74 | 1008.7 |
| 20260504004925 | 7 | 168 | 0.0 | 0.0 | 0.00 | 0.00 | 0.00 | 74 | 1008.6 |
| 20260504004423 | 7 | 168 | 0.0 | 1.6 | 0.00 | 0.00 | 0.00 | 73 | 1008.6 |
| 20260504003919 | 7 | 235 | 0.0 | 0.0 | 0.00 | 0.00 | 0.00 | 78 | 1008.3 |
| 20260504003416 | 8 | 237 | 0.0 | 0.0 | 0.00 | 0.00 | 0.00 | 77 | 1008.3 |
| 20260504002912 | 7 | 237 | 0.0 | 0.0 | 0.00 | 0.00 | 0.00 | 74 | 1008.2 |
| 20260504002409 | 7 | 237 | 0.0 | 0.0 | 0.00 | 0.00 | 0.00 | 72 | 1008.3 |
| 20260504001907 | 8 | 237 | 0.0 | 0.0 | 0.00 | 0.00 | 0.00 | 74 | 1007.9 |
| 20260504001405 | 8 | 237 | 0.0 | 0.0 | 0.00 | 0.00 | 0.00 | 73 | 1007.8 |
| 20260504000901 | 8 | 237 | 0.0 | 0.0 | 0.00 | 0.00 | 0.00 | 70 | 1007.8 |
| 20260504000358 | 8 | 238 | 0.0 | 0.0 | 0.00 | 0.00 | 0.00 | 71 | 1007.9 |
| 20260503235855 | 8 | 238 | 0.0 | 0.0 | 0.00 | 0.00 | 0.00 | 65 | 1007.7 |
| 20260503235353 | 8 | 238 | 0.0 | 0.0 | 0.00 | 0.00 | 0.00 | 65 | 1007.8 |
| 20260503234850 | 9 | 238 | 0.0 | 0.0 | 0.00 | 0.00 | 0.00 | 64 | 1007.8 |
| 20260503234348 | 10 | 238 | 0.0 | 0.0 | 0.00 | 0.00 | 0.00 | 64 | 1007.8 |
| 20260503233845 | 9 | 238 | 1.6 | 1.6 | 0.00 | 0.00 | 0.00 | 62 | 1007.8 |
| 20260503233342 | 10 | 238 | 0.0 | 0.0 | 0.00 | 0.00 | 0.00 | 61 | 1007.7 |
| 20260503232838 | 10 | 238 | 0.0 | 0.0 | 0.00 | 0.00 | 0.00 | 57 | 1007.7 |
| 20260503232335 | 10 | 237 | 0.0 | 0.0 | 0.00 | 0.00 | 0.00 | 54 | 1007.7 |
| 20260503231833 | 10 | 237 | 0.0 | 0.0 | 0.00 | 0.00 | 0.00 | 55 | 1007.6 |
| 20260503231330 | 10 | 238 | 0.0 | 1.6 | 0.00 | 0.00 | 0.00 | 52 | 1007.5 |
| 20260503230826 | 11 | 269 | 1.6 | 1.6 | 0.00 | 0.00 | 0.00 | 51 | 1007.6 |
| 20260503230323 | 11 | 279 | 4.8 | 4.8 | 0.00 | 0.00 | 0.00 | 50 | 1007.7 |
| 20260503225821 | 11 | 228 | 4.8 | 4.8 | 0.00 | 0.00 | 0.00 | 49 | 1007.7 |
| 20260503225316 | 12 | 164 | 1.6 | 3.2 | 0.00 | 0.00 | 0.00 | 47 | 1007.7 |
| 20260503224813 | 12 | 199 | 1.6 | 1.6 | 0.00 | 0.00 | 0.00 | 49 | 1007.7 |
| 20260503224310 | 12 | 184 | 0.0 | 0.0 | 0.00 | 0.00 | 0.00 | 49 | 1007.7 |
| 20260503223808 | 12 | 213 | 1.6 | 3.2 | 0.00 | 0.00 | 0.00 | 48 | 1007.6 |
| 20260503223305 | 12 | 114 | 1.6 | 4.8 | 0.00 | 0.00 | 0.00 | 48 | 1007.7 |
| 20260503222801 | 12 | 131 | 1.6 | 1.6 | 0.00 | 0.00 | 0.00 | 48 | 1007.7 |
| 20260503222300 | 12 | 49 | 3.2 | 3.2 | 0.00 | 0.00 | 0.00 | 48 | 1007.8 |
| 20260503221757 | 12 | 314 | 1.6 | 1.6 | 0.00 | 0.00 | 0.00 | 50 | 1007.8 |
| 20260503221255 | 11 | 94 | 3.2 | 3.2 | 0.00 | 0.00 | 0.00 | 49 | 1007.9 |
| 20260503220751 | 11 | 161 | 3.2 | 3.2 | 0.00 | 0.00 | 0.00 | 50 | 1008.2 |
| 20260503220248 | 10 | 220 | 3.2 | 4.8 | 0.00 | 0.00 | 0.00 | 52 | 1007.9 |
| 20260503215745 | 10 | 269 | 6.4 | 6.4 | 0.00 | 0.00 | 0.00 | 51 | 1008.2 |
| 20260503215242 | 11 | 161 | 3.2 | 6.4 | 0.00 | 0.00 | 0.00 | 50 | 1008.2 |
| 20260503214740 | 11 | 290 | 6.4 | 9.7 | 0.00 | 0.00 | 0.00 | 50 | 1007.7 |
| 20260503214237 | 11 | 263 | 1.6 | 3.2 | 0.00 | 0.00 | 0.00 | 48 | 1007.9 |
| 20260503213735 | 11 | 277 | 6.4 | 6.4 | 0.00 | 0.00 | 0.00 | 49 | 1008.0 |
| 20260503213232 | 10 | 230 | 6.4 | 12.9 | 0.00 | 0.00 | 0.00 | 50 | 1008.3 |
| 20260503212728 | 10 | 227 | 3.2 | 4.8 | 0.00 | 0.00 | 0.00 | 53 | 1007.8 |
| 20260503212226 | 10 | 329 | 12.9 | 17.7 | 0.00 | 0.00 | 0.00 | 50 | 1008.2 |
| 20260503211724 | 10 | 124 | 1.6 | 1.6 | 0.00 | 0.00 | 0.00 | 53 | 1007.9 |
| 20260503211220 | 10 | 290 | 12.9 | 20.9 | 0.00 | 0.00 | 0.00 | 49 | 1008.3 |
| 20260503210715 | 10 | 334 | 9.7 | 11.3 | 0.00 | 0.00 | 0.00 | 48 | 1008.0 |
| 20260503210213 | 11 | 231 | 8.0 | 11.3 | 0.00 | 0.00 | 0.00 | 48 | 1007.8 |
| 20260503205708 | 11 | 118 | 4.8 | 6.4 | 0.00 | 0.00 | 0.00 | 46 | 1007.9 |
| 20260503205205 | 11 | 196 | 3.2 | 4.8 | 0.00 | 0.00 | 0.00 | 46 | 1007.7 |
| 20260503204701 | 11 | 105 | 3.2 | 6.4 | 0.00 | 0.00 | 0.00 | 45 | 1007.5 |
| 20260503204159 | 11 | 183 | 3.2 | 3.2 | 0.00 | 0.00 | 0.00 | 46 | 1007.5 |
| 20260503203655 | 11 | 140 | 6.4 | 9.7 | 0.00 | 0.00 | 0.00 | 47 | 1007.7 |
| 20260503203154 | 11 | 155 | 4.8 | 6.4 | 0.00 | 0.00 | 0.00 | 45 | 1007.8 |
| 20260503202650 | 11 | 64 | 3.2 | 4.8 | 0.00 | 0.00 | 0.00 | 48 | 1007.7 |
| 20260503202148 | 11 | 299 | 6.4 | 9.7 | 0.00 | 0.00 | 0.00 | 46 | 1007.7 |
| 20260503201646 | 11 | 274 | 4.8 | 4.8 | 0.00 | 0.00 | 0.00 | 45 | 1007.7 |
| 20260503201143 | 11 | 149 | 4.8 | 6.4 | 0.00 | 0.00 | 0.00 | 45 | 1007.8 |
| 20260503200639 | 11 | 346 | 14.5 | 25.7 | 0.00 | 0.00 | 0.00 | 45 | 1008.2 |
| 20260503200136 | 11 | 158 | 6.4 | 6.4 | 0.00 | 0.00 | 0.00 | 45 | 1007.8 |
| 20260503195633 | 11 | 251 | 4.8 | 9.7 | 0.00 | 0.00 | 0.00 | 44 | 1007.8 |
| 20260503195130 | 11 | 49 | 6.4 | 11.3 | 0.00 | 0.00 | 0.00 | 43 | 1008.0 |
| 20260503194627 | 11 | 51 | 6.4 | 9.7 | 0.00 | 0.00 | 0.00 | 44 | 1008.0 |
| 20260503194122 | 12 | 222 | 6.4 | 9.7 | 0.00 | 0.00 | 0.00 | 43 | 1008.0 |
| 20260503193620 | 12 | 59 | 8.0 | 12.9 | 0.00 | 0.00 | 0.00 | 40 | 1008.3 |
| 20260503193114 | 12 | 222 | 3.2 | 6.4 | 0.00 | 0.00 | 0.00 | 42 | 1008.3 |
| 20260503192610 | 11 | 257 | 8.0 | 11.3 | 0.00 | 0.00 | 0.00 | 41 | 1008.2 |
| 20260503192106 | 11 | 271 | 6.4 | 6.4 | 0.00 | 0.00 | 0.00 | 43 | 1008.0 |
| 20260503191604 | 12 | 85 | 3.2 | 3.2 | 0.00 | 0.00 | 0.00 | 42 | 1008.3 |
| 20260503191100 | 11 | 319 | 4.8 | 9.7 | 0.00 | 0.00 | 0.00 | 43 | 1008.3 |
| 20260503190557 | 11 | 276 | 9.7 | 11.3 | 0.00 | 0.00 | 0.00 | 40 | 1008.5 |
| 20260503190054 | 12 | 213 | 6.4 | 6.4 | 0.00 | 0.00 | 0.00 | 41 | 1008.5 |
| 20260503185551 | 11 | 192 | 6.4 | 9.7 | 0.00 | 0.00 | 0.00 | 40 | 1008.6 |
| 20260503185050 | 11 | 273 | 3.2 | 3.2 | 0.00 | 0.00 | 0.00 | 40 | 1008.5 |
| 20260503184546 | 11 | 192 | 3.2 | 6.4 | 0.00 | 0.00 | 0.00 | 42 | 1008.9 |
| 20260503184043 | 11 | 314 | 14.5 | 22.5 | 0.00 | 0.00 | 0.00 | 39 | 1008.8 |
| 20260503183540 | 12 | 314 | 6.4 | 6.4 | 0.00 | 0.00 | 0.00 | 41 | 1008.7 |
| 20260503183037 | 11 | 156 | 6.4 | 14.5 | 0.00 | 0.00 | 0.00 | 41 | 1009.0 |
| 20260503182536 | 11 | 299 | 4.8 | 6.4 | 0.00 | 0.00 | 0.00 | 42 | 1009.0 |
| 20260503182033 | 12 | 330 | 4.8 | 6.4 | 0.00 | 0.00 | 0.00 | 42 | 1009.0 |
| 20260503181530 | 11 | 44 | 6.4 | 11.3 | 0.00 | 0.00 | 0.00 | 40 | 1009.0 |
| 20260503181026 | 11 | 319 | 14.5 | 16.1 | 0.00 | 0.00 | 0.00 | 40 | 1009.0 |
| 20260503180524 | 10 | 306 | 12.9 | 22.5 | 0.00 | 0.00 | 0.00 | 41 | 1009.2 |
| 20260503180021 | 11 | 303 | 9.7 | 12.9 | 0.00 | 0.00 | 0.00 | 41 | 1009.2 |
| 20260503175518 | 11 | 182 | 6.4 | 11.3 | 0.00 | 0.00 | 0.00 | 40 | 1009.3 |
| 20260503175015 | 11 | 225 | 8.0 | 9.7 | 0.00 | 0.00 | 0.00 | 41 | 1009.3 |
| 20260503174513 | 10 | 69 | 11.3 | 24.1 | 0.00 | 0.00 | 0.00 | 42 | 1009.5 |
| 20260503174008 | 10 | 215 | 8.0 | 12.9 | 0.00 | 0.00 | 0.00 | 42 | 1009.2 |
| 20260503173503 | 10 | 248 | 6.4 | 11.3 | 0.00 | 0.00 | 0.00 | 44 | 1009.4 |
| 20260503173000 | 10 | 82 | 3.2 | 4.8 | 0.00 | 0.00 | 0.00 | 46 | 1009.4 |
| 20260503172458 | 10 | 289 | 8.0 | 14.5 | 0.00 | 0.00 | 0.00 | 43 | 1009.5 |
| 20260503171955 | 10 | 293 | 4.8 | 6.4 | 0.00 | 0.00 | 0.00 | 42 | 1009.2 |
| 20260503171451 | 10 | 186 | 1.6 | 3.2 | 0.00 | 0.00 | 0.00 | 43 | 1009.5 |
| 20260503170949 | 10 | 254 | 8.0 | 11.3 | 0.00 | 0.00 | 0.00 | 42 | 1009.5 |
| 20260503170445 | 10 | 91 | 8.0 | 12.9 | 0.00 | 0.00 | 0.00 | 43 | 1009.6 |
| 20260503150837 | 6 | 321 | 9.7 | 12.9 | 0.00 | 0.00 | 0.00 | 52 | 1010.4 |
| 20260503150333 | 7 | 186 | 1.6 | 1.6 | 0.00 | 0.00 | 0.00 | 51 | 1010.2 |
| 20260503140257 | 6 | 249 | 4.8 | 6.4 | 0.00 | 0.00 | 0.00 | 54 | 1010.2 |
| 20260503131227 | 6 | 141 | 8.0 | 11.3 | 0.00 | 0.00 | 0.00 | 62 | 1010.4 |
| 20260503130725 | 5 | 218 | 4.8 | 4.8 | 0.00 | 0.00 | 0.00 | 66 | 1010.4 |
| 20260503130222 | 6 | 199 | 0.0 | 1.6 | 0.00 | 0.00 | 0.00 | 63 | 1010.4 |
| 20260503120148 | 3 | 136 | 3.2 | 6.4 | 0.00 | 0.00 | 0.00 | 78 | 1010.4 |